This is the latest recevied weather packets stored in our database for station/object N1YZ. If no packets are shown the sender has not sent any weather packets the latest 10 day(s).
| Time | Temp. | Humidity | Pressure | Rain* | Wind** | Luminosity | Snow |
|---|---|---|---|---|---|---|---|
| 1777730991 | 13.33° C | 79% | 1034.6 hPa | 0 mm | - | 184 W/m² | - |
| 1777730690 | 13.33° C | 80% | 1034.5 hPa | 0 mm | - | 119 W/m² | - |
| 1777730385 | 13.33° C | 83% | 1034.8 hPa | 0 mm | - | 81 W/m² | - |
| 1777730081 | 13.33° C | 76% | 1034.7 hPa | 0 mm | - | 99 W/m² | - |
| 1777729778 | 12.22° C | 81% | 1034.5 hPa | 0 mm | - | 138 W/m² | - |
| 1777729475 | 11.67° C | 84% | 1034.4 hPa | 0 mm | - | 136 W/m² | - |
| 1777729172 | 11.11° C | 89% | 1034.4 hPa | 0 mm | - | 66 W/m² | - |
| 1777728868 | 11.67° C | 89% | 1034.7 hPa | 0 mm | - | 51 W/m² | - |
| 1777728565 | 11.11° C | 88% | 1034.4 hPa | 0 mm | - | 54 W/m² | - |
| 1777728262 | 11.11° C | 87% | 1034.1 hPa | 0 mm | - | 49 W/m² | - |
| 1777727960 | 11.11° C | 88% | 1034.1 hPa | 0 mm | - | 46 W/m² | - |
| 1777727656 | 11.11° C | 87% | 1034.1 hPa | 0 mm | - | 34 W/m² | - |
| 1777727353 | 11.11° C | 88% | 1034.1 hPa | 0 mm | - | 30 W/m² | - |
| 1777727051 | 11.11° C | 89% | 1034.1 hPa | 0 mm | - | 30 W/m² | - |
| 1777726748 | 11.11° C | 90% | 1033.8 hPa | 0 mm | - | 36 W/m² | - |
| 1777726445 | 10.56° C | 91% | 1033.6 hPa | 0 mm | - | 54 W/m² | - |
| 1777726142 | 10.56° C | 92% | 1033.8 hPa | 0 mm | - | 48 W/m² | - |
| 1777725838 | 10.56° C | 91% | 1033.8 hPa | 0 mm | - | 37 W/m² | - |
| 1777725530 | 10.56° C | 91% | 1033.5 hPa | 0 mm | - | 39 W/m² | - |
| 1777725228 | 10.56° C | 90% | 1033.6 hPa | 0 mm | - | 30 W/m² | - |
| 1777724925 | 10.56° C | 91% | 1033.5 hPa | 0 mm | - | 25 W/m² | - |
| 1777724620 | 10.56° C | 92% | 1033.7 hPa | 0 mm | - | 22 W/m² | - |
| 1777724319 | 10.56° C | 92% | 1033.5 hPa | 0 mm | - | 22 W/m² | - |
| 1777724016 | 10.56° C | 91% | 1033.2 hPa | 0 mm | - | 25 W/m² | - |
| 1777723713 | 10.56° C | 91% | 1033.5 hPa | 0 mm | - | 25 W/m² | - |
* Rain latest hour (hover to see other rain measurements)
** Current wind speed in m/s (hover to see current wind gust speed)